SCP
7 7 5 4 4 5 6 7 8 8 8 7 7 6 6 6 5 4 4 4 4 4 3 3 3 2 2 2 2 1 1 1 1 1 1 1 1 1 0 0 0 0 0
7 7 5 4 4 5 6 7 7 7 7 7 7 6 5 5 4 4 4 5 5 5 4 3 3 3 3 2 2 2 1 1 1 1 1 0 1 0 0 0 0 0 0
7 7 5 4 4 5 5 6 6 6 6 6 6 6 5 4 4 4 4 5 5 5 5 4 3 3 3 3 2 2 2 2 1 1 0 0 0 0 0 0 0 0 0
6 6 5 4 4 4 5 5 5 5 5 5 5 5 5 4 4 3 3 3 4 5 5 4 4 3 3 3 3 3 3 2 2 1 1 1 0 0 0 0 0 0 0
5 5 4 4 4 4 4 5 4 4 4 4 5 5 4 4 3 3 2 2 3 3 4 4 4 4 3 3 3 3 3 3 3 2 1 1 0 0 0 0 0 0 0
4 4 4 4 4 4 4 4 4 4 4 4 4 4 4 4 3 3 3 3 2 3 3 4 4 4 4 3 3 3 3 3 3 2 1 1 0 0 0 0 0 0 0
4 4 5 5 4 4 4 4 4 4 4 4 4 4 4 4 4 4 4 4 4 4 4 4 4 5 4 4 3 3 3 3 3 2 2 1 1 0 0 0 0 0 0
5 6 5 5 5 5 5 5 4 4 4 4 4 4 5 5 5 6 6 6 6 6 5 5 5 5 4 4 4 3 3 3 2 2 2 2 1 1 0 0 0 0 0
6 6 6 5 4 5 5 6 6 6 5 5 5 5 6 6 7 7 7 7 7 6 5 5 4 5 5 5 4 3 3 2 2 2 2 2 2 1 0 0 0 0 0
5 6 6 5 5 4 5 6 7 8 8 7 7 6 6 7 7 7 7 6 5 4 3 3 3 3 4 4 4 2 1 1 1 1 2 2 2 1 1 0 0 0 0
4 4 5 5 5 4 3 4 6 8 8 8 7 7 6 5 5 5 4 3 2 2 1 1 1 1 2 2 2 2 1 1 1 1 1 1 1 1 1 1 0 0 0
5 5 5 5 4 3 2 2 5 7 8 8 8 6 5 4 3 2 2 1 1 1 0 0 0 0 0 1 1 1 1 0 0 0 0 0 0 1 1 0 0 0 0
5 5 5 4 2 1 1 1 3 5 7 8 8 6 5 3 2 1 1 1 0 0 0 0 0 0 0 0 0 0 0 0 0 0 0 0 0 0 0 0 0 0 0
3 3 2 2 1 1 1 1 3 4 6 8 7 5 4 3 2 1 0 0 0 0 0 0 0 0 0 0 0 0 0 0 0 0 0 0 0 0 0 0 0 0 0
1 1 0 1 1 1 1 2 3 4 5 6 6 4 3 2 1 1 0 0 0 0 0 0 0 0 0 0 0 0 0 0 0 0 0 0 0 0 0 0 0 0 0
1 1 1 1 1 1 2 3 4 4 4 4 4 2 1 1 1 1 0 0 0 0 0 0 0 0 0 0 0 0 0 0 0 0 0 0 0 0 0 0 0 0 0
2 2 2 2 1 2 3 4 4 3 3 2 2 1 1 0 0 0 0 0 0 0 0 0 0 0 0 0 0 0 0 0 0 0 0 0 0 0 0 0 0 0 0
3 3 3 3 2 3 3 3 3 2 2 1 1 0 0 0 0 0 0 0 0 0 0 0 0 0 0 0 0 0 0 0 0 0 0 0 0 0 0 0 0 0 0
3 3 3 3 3 2 2 2 2 1 1 1 0 0 0 0 0 0 0 0 0 0 0 0 0 0 0 0 0 0 0 0 0 0 0 0 0 0 0 0 0 0 0
3 4 3 3 2 2 1 1 1 1 1 0 0 0 0 0 0 0 0 0 0 0 0 0 0 0 0 0 0 0 0 0 0 0 0 0 0 0 0 0 0 0 0
4 4 3 2 1 1 1 1 1 1 0 0 0 0 0 0 0 0 0 0 0 0 1 1 1 1 0 0 0 0 0 0 0 0 0 0 0 0 0 0 0 0 0
3 3 2 2 1 1 1 1 1 0 0 0 0 0 0 0 0 0 0 0 0 1 1 1 1 0 0 0 0 0 0 0 0 0 0 0 0 0 0 0 0 0 0
2 2 2 1 1 1 1 1 0 0 0 0 0 0 0 0 0 0 0 0 0 0 0 0 0 0 0 0 0 0 0 0 0 0 0 0 0 0 0 0 0 0 0
1 1 1 1 1 0 0 0 0 0 0 0 0 0 0 0 0 0 0 0 0 0 0 0 0 0 0 0 0 0 0 0 0 0 0 0 0 0 0 0 0 0 0
1 1 1 0 0 0 0 0 0 0 0 0 0 0 0 0 0 0 0 0 0 0 0 0 0 0 0 0 0 0 0 0 0 0 0 0 0 0 0 0 0 0 0
1 1 0 0 0 0 0 0 0 0 0 0 0 0 0 0 0 0 0 0 0 0 0 0 0 0 0 0 0 0 0 0 0 0 0 0 0 0 0 0 0 0 0
Wind_Speed
4 5 5 4 5 4 4 4 4 3 2 2 1 1 1 1 1 1 2 2 2 2 2 1 1 1 2 2 3 2 2 2 1 1 1 2 2 3 3 3 3 4 5
5 4 4 3 4 4 4 3 4 3 2 2 2 2 2 1 1 1 1 1 2 2 1 2 2 2 1 1 2 2 2 2 2 2 1 1 2 3 3 3 3 4 4
9 6 5 4 4 4 4 3 3 3 2 1 1 1 1 1 1 1 1 1 2 2 1 2 2 2 2 2 3 3 3 3 2 2 3 3 3 2 3 3 4 4 3
7 6 5 4 5 4 4 3 3 2 1 2 2 2 1 1 2 1 1 1 1 2 2 2 2 2 2 2 3 3 3 3 2 2 2 3 3 3 2 2 3 4 4
7 7 6 6 5 4 3 3 2 2 1 1 2 2 1 1 1 1 1 1 2 2 2 2 1 2 2 2 2 2 3 3 3 3 2 2 1 2 2 2 2 2 2
5 6 5 5 4 3 3 2 3 2 2 2 2 2 2 2 1 1 1 2 2 2 2 2 2 2 2 2 3 3 3 4 4 3 3 3 3 3 3 3 2 2 3
5 6 6 5 5 4 3 2 3 3 3 2 3 3 3 3 3 3 3 2 2 2 3 3 2 2 3 3 2 2 3 4 4 4 3 3 3 3 3 3 2 2 2
4 5 6 5 5 4 3 2 2 3 3 3 2 2 2 2 2 3 3 3 2 3 3 3 3 3 3 3 2 2 3 3 4 5 4 3 3 3 3 3 3 1 2
4 4 4 4 3 3 3 4 3 2 2 2 2 1 2 2 3 3 3 2 2 3 3 3 3 3 3 3 3 3 3 3 4 4 4 4 3 3 3 3 3 4 2
4 4 3 3 2 2 2 3 3 3 2 2 2 2 2 3 3 2 3 3 3 3 3 3 3 3 4 4 3 3 3 4 4 3 4 4 3 3 3 3 3 3 4
4 4 3 3 2 1 2 2 2 2 2 2 2 2 2 2 2 2 3 3 3 3 3 3 3 3 3 3 3 3 3 4 4 4 4 5 4 4 3 3 3 3 3
4 4 3 3 2 1 1 1 1 2 2 2 2 1 1 2 2 3 4 4 3 3 3 3 3 3 3 3 3 4 4 4 5 5 4 5 4 5 4 4 4 3 4
4 3 3 2 2 1 0 1 1 2 2 2 2 1 2 2 3 4 3 3 3 3 3 3 4 4 4 4 4 4 4 5 5 5 5 6 5 5 4 5 5 4 4
4 4 2 1 1 1 1 1 2 2 2 1 1 1 2 4 4 3 3 3 3 3 3 3 4 4 4 4 4 4 4 4 5 5 6 6 6 6 6 5 5 4 4
4 3 2 1 1 1 1 1 2 2 1 1 2 3 3 3 3 3 3 3 3 3 3 3 3 4 3 4 4 4 4 3 4 4 5 6 7 8 7 5 5 5 4
3 2 2 1 1 2 2 1 2 2 2 1 2 2 2 2 2 2 2 2 2 2 2 3 3 4 4 5 6 5 4 3 3 4 4 5 6 7 9 10 9 8 7
2 2 1 1 1 1 1 1 2 2 1 1 2 2 2 2 2 2 2 2 3 2 2 3 3 4 5 6 6 7 4 4 4 4 4 4 4 5 5 7 8 8 10
3 1 1 1 1 1 0 1 1 2 1 2 2 2 2 2 2 2 2 3 3 3 3 4 4 3 5 5 5 5 4 3 4 5 5 4 4 4 4 4 4 4 5
3 2 2 1 0 1 0 1 2 2 2 2 2 3 2 2 2 3 3 3 3 3 4 3 3 3 4 5 5 4 2 2 4 4 4 4 4 5 4 3 3 3 4
3 2 1 1 1 1 1 2 2 2 3 3 3 3 2 2 3 3 3 3 3 4 4 3 3 3 4 4 5 4 2 2 3 3 3 4 5 5 4 3 3 4 4
2 2 2 1 1 1 1 1 2 3 4 3 3 3 3 3 3 3 3 3 3 3 3 3 3 3 4 4 5 5 3 3 3 3 3 3 5 5 5 4 4 6 5
2 2 2 1 1 1 1 1 3 4 3 3 3 4 4 4 3 3 3 3 2 2 3 3 4 3 3 3 4 4 4 4 3 4 3 4 5 5 5 4 5 7 5
2 1 1 1 2 2 1 1 4 3 3 3 3 4 5 4 3 3 3 3 2 2 3 2 3 4 3 3 4 4 4 4 3 3 4 4 4 3 3 5 6 4 2
1 1 1 1 3 3 2 2 3 2 2 3 4 4 4 4 4 3 2 2 2 3 3 2 3 3 3 2 2 2 2 2 2 2 2 2 3 2 3 3 2 2 3
1 1 1 1 3 3 3 3 2 2 3 4 4 4 4 4 3 3 3 3 3 4 4 3 3 3 3 4 4 2 2 2 2 1 0 0 0 1 1 1 1 1 1
2 1 1 2 3 3 3 3 3 2 2 3 4 4 4 3 3 3 4 5 4 5 5 5 4 3 5 5 4 4 3 3 2 2 1 1 2 2 2 2 2 2 2
Wind_Direction
154 147 140 137 127 120 122 129 124 124 125 129 143 151 197 218 225 217 200 183 183 181 183 210 214 200 204 218 209 194 202 224 192 143 307 306 268 241 240 225 212 218 212
135 157 146 136 140 144 145 140 134 135 145 168 187 187 188 204 210 232 222 190 191 192 196 196 209 204 207 225 210 193 190 221 180 153 128 317 310 273 247 228 216 220 214
154 160 156 154 152 152 158 154 153 141 144 132 102 64 47 21 10 292 256 228 201 193 197 212 210 218 207 220 221 203 192 208 217 174 157 169 223 268 273 239 227 219 215
157 157 157 158 163 165 157 149 153 148 142 127 124 134 158 219 240 235 249 259 227 211 204 214 211 221 225 225 229 212 198 187 207 219 209 194 178 177 264 286 255 234 222
171 166 163 166 165 156 153 158 154 167 179 166 170 169 197 238 250 247 258 271 272 247 225 206 201 220 229 231 232 223 208 196 197 201 206 218 218 187 187 255 281 279 248
176 172 166 156 155 151 149 163 173 199 212 200 196 187 201 220 224 255 250 264 275 272 247 217 217 226 234 235 232 223 214 211 206 207 197 188 193 202 192 216 243 262 273
170 169 167 168 166 166 168 181 189 215 224 212 214 212 212 207 212 223 231 243 260 264 250 238 233 236 236 233 225 221 226 216 208 210 211 207 209 193 184 188 219 254 277
169 173 173 174 172 172 171 183 212 233 233 222 229 232 216 212 229 228 223 225 234 243 248 242 234 233 229 228 216 217 232 221 219 223 215 215 218 201 188 186 184 233 277
156 164 163 156 155 166 178 196 208 229 240 233 222 229 220 215 233 243 233 234 245 247 247 245 235 231 229 225 213 217 228 217 221 224 216 214 218 206 200 191 182 181 223
151 148 137 142 143 168 184 193 199 210 217 222 228 234 232 225 226 234 246 250 253 254 256 255 244 236 233 225 218 222 231 221 223 217 212 217 218 214 205 198 196 191 194
145 146 146 146 146 156 180 200 208 218 225 230 235 240 255 255 247 245 254 249 247 245 243 249 242 235 239 231 221 231 233 228 230 227 216 220 213 212 213 206 200 197 187
134 142 137 129 138 159 172 208 217 232 239 237 238 238 253 263 263 260 259 256 253 247 237 230 228 230 234 226 220 235 235 228 230 232 225 227 219 215 213 207 211 212 204
124 118 118 129 153 168 185 270 253 251 249 243 247 277 282 269 266 265 268 269 260 260 253 235 233 236 234 233 232 232 235 230 230 227 222 225 214 218 215 210 214 217 218
125 129 138 148 165 175 198 234 260 243 242 254 255 281 273 258 256 267 279 276 264 254 251 247 240 236 233 233 236 236 237 239 241 234 227 225 214 219 217 219 215 212 214
112 122 147 173 227 255 258 257 258 256 242 241 255 253 254 262 266 270 274 282 275 264 258 260 260 252 244 238 233 232 235 237 245 244 235 233 230 228 221 221 211 203 207
130 126 122 131 261 265 265 282 281 284 284 278 278 281 283 280 274 270 271 285 287 285 281 270 264 263 264 256 244 232 235 240 241 249 252 249 240 237 231 233 223 208 203
137 147 165 191 248 264 257 268 285 315 336 315 299 292 290 282 271 271 282 278 277 280 277 274 265 261 266 259 249 238 227 233 240 245 250 257 251 240 231 236 234 228 224
138 159 194 217 231 222 305 329 350 355 345 328 316 307 294 276 280 294 298 286 276 272 265 269 267 264 272 260 247 244 237 238 244 241 240 241 248 242 228 225 230 236 236
162 182 197 200 255 1 338 19 1 353 348 325 310 301 293 283 289 291 291 283 283 282 274 268 267 266 276 264 252 239 231 245 257 254 242 228 230 241 229 203 215 246 267
160 161 132 69 33 341 25 45 357 345 315 296 289 289 295 284 270 266 275 277 275 275 282 283 276 265 266 265 254 234 202 234 256 266 256 239 233 239 229 195 200 230 253
136 121 93 66 334 323 47 15 329 312 294 299 309 306 295 282 266 266 271 281 289 298 296 292 292 282 267 271 266 244 209 221 239 253 261 252 241 238 234 216 214 230 239
103 95 91 359 309 320 70 330 305 292 301 316 322 310 298 295 296 285 284 285 290 295 293 294 301 297 281 274 274 258 243 231 217 237 246 248 245 236 234 232 236 242 241
111 95 107 332 317 302 246 272 283 298 317 328 316 302 301 302 301 281 279 290 288 280 281 281 288 296 296 287 278 269 266 248 227 242 247 250 246 236 235 236 238 238 219
135 120 86 350 319 307 297 272 287 305 320 315 307 304 303 304 308 296 273 270 274 273 272 268 272 285 296 295 293 283 278 272 253 260 268 264 253 254 253 256 251 226 214
180 159 156 269 291 300 300 291 298 318 324 312 307 310 303 293 293 289 271 260 253 239 238 247 241 250 279 279 269 258 265 256 240 223 121 28 295 279 273 276 270 244 220
183 188 236 268 287 297 295 293 293 305 312 309 304 300 297 292 285 285 298 288 273 273 256 247 240 253 260 276 286 289 279 267 203 138 172 226 230 235 242 247 259 248 229